Location: Deardoffs Mills (historical)
(40.6353°N, 81.5590°W)
Time: 16:02:54
(UTC+00:00)

Tiangong - Visible Passes

Search period start: 05 October 2022 00:00
Search period end: 15 October 2022 00:00
Orbit: 382 x 386 km, 41.5° (Epoch: 05 October)

Date Brightness Start Highest point End Pass type
(mag) Time Alt. Az. Time Alt. Az. Time Alt. Az.
08 Oct -0.8 00:21:47 10° SSW 00:24:10 26° SSE 00:24:10 26° SSE visible
08 Oct -0.2 23:22:39 10° S 23:24:44 17° SSE 23:26:50 10° ESE visible
09 Oct 0.0 00:58:04 10° WSW 00:59:31 24° WSW 00:59:31 24° WSW visible
09 Oct -1.6 23:58:14 10° SW 00:01:16 43° SSE 00:02:30 27° ESE visible
11 Oct -1.9 00:34:47 10° WSW 00:37:35 67° WSW 00:37:35 67° WSW visible
11 Oct -2.1 23:34:45 10° WSW 23:37:53 66° SSE 23:40:21 15° E visible
12 Oct 0.8 01:11:34 10° W 01:12:32 18° W 01:12:32 18° W visible
13 Oct -2.2 00:11:24 10° W 00:14:34 77° N 00:15:14 51° ENE visible
14 Oct -0.5 00:48:06 10° W 00:50:03 34° WNW 00:50:03 34° WNW visible
14 Oct -2.1 23:47:51 10° W 23:51:00 73° N 23:52:38 26° E visible
